Wind_Speed
31 30 28 29 31 30 31 33 36 39 39 40 45 51 56 64 73 78 65 47 42 42 46 53 51 52 47 23 18 23 18 22 25 59 46 64 49 60 61 69 68 66 54 52 48 53 54
30 30 29 27 28 30 30 31 35 37 37 39 45 50 56 63 71 77 65 49 42 43 48 53 50 49 39 21 13 19 18 23 34 48 38 58 58 51 61 63 71 66 57 57 59 50 51
28 29 27 26 29 28 31 30 33 35 36 39 44 49 56 62 70 76 68 47 40 44 50 51 49 46 30 15 11 17 19 22 48 47 41 47 58 56 59 62 63 62 59 46 48 49 50
28 27 24 24 28 25 29 30 31 32 35 38 43 47 54 61 70 74 69 48 40 44 49 50 48 44 20 14 9 15 18 25 47 30 45 45 37 44 54 59 59 49 53 50 52 50 46
28 27 24 23 28 24 27 27 27 32 34 37 40 46 51 59 68 74 66 44 40 44 48 48 47 40 16 10 6 11 15 33 41 38 44 41 37 43 48 50 55 54 51 47 44 45 43
27 26 25 23 26 23 26 26 26 31 33 36 38 44 50 59 67 71 64 43 39 44 48 48 46 32 13 8 4 8 14 41 46 40 45 43 40 38 37 44 50 46 56 47 40 40 40
28 25 23 23 23 22 24 23 26 29 34 34 36 42 48 57 65 70 61 41 38 45 48 49 44 28 11 7 2 8 17 42 49 42 40 40 43 31 31 40 48 51 48 43 46 41 37
29 24 24 23 22 20 22 22 24 28 32 31 34 40 45 55 64 68 58 41 35 40 45 45 37 26 12 9 4 4 26 37 53 45 47 42 36 30 40 43 52 54 47 49 46 41 37
27 25 24 23 21 19 21 21 24 26 31 28 31 38 43 51 61 65 59 41 31 37 41 42 31 27 18 13 13 8 27 41 48 45 49 41 34 35 33 43 49 51 45 40 41 39 44
27 26 24 22 21 19 21 21 22 24 28 24 29 36 42 49 58 64 58 43 28 33 38 40 28 19 16 16 11 15 32 39 47 36 43 33 37 29 23 40 48 46 41 39 28 33 35
27 27 24 22 23 19 20 19 21 23 25 20 26 34 40 46 55 61 60 42 26 31 33 39 34 19 17 11 8 17 37 45 39 34 39 31 30 31 27 37 44 45 43 38 30 23 29
28 28 25 22 24 20 20 17 20 22 21 18 24 31 38 44 52 58 57 42 26 27 27 35 43 21 18 18 12 39 39 40 36 35 31 32 28 22 26 35 45 38 39 35 29 29 25
30 28 26 23 22 20 19 16 18 19 15 17 21 29 36 42 48 55 56 44 27 21 24 28 36 33 21 25 29 37 33 33 32 37 37 34 20 20 20 23 38 42 36 28 28 28 28
29 30 26 25 23 21 17 14 16 14 12 15 18 27 34 40 46 52 55 47 31 20 23 21 30 33 20 21 21 30 33 29 26 30 33 31 24 20 22 16 25 34 37 30 32 29 26
30 30 26 26 24 21 15 12 14 11 10 13 17 25 31 37 42 48 53 49 42 17 18 19 24 30 28 20 22 32 35 36 31 25 27 24 18 20 19 18 22 31 34 34 32 32 30
34 31 28 25 25 22 15 12 12 8 7 11 17 24 30 36 39 45 50 50 39 19 12 17 17 22 27 26 26 28 32 31 23 32 28 22 19 18 20 18 22 24 29 31 32 32 30
33 32 29 27 26 24 16 13 10 5 4 9 15 21 27 32 37 41 45 49 45 29 9 12 16 14 17 20 21 20 22 24 20 20 26 18 13 14 19 22 18 22 24 30 33 36 33
35 33 33 29 28 24 17 15 7 2 2 7 13 19 24 29 34 36 42 47 46 32 8 5 9 12 10 11 14 14 14 8 8 14 24 29 17 14 13 18 18 19 21 27 31 32 34
39 36 35 26 31 26 20 16 8 4 1 7 11 17 21 26 30 32 38 43 43 35 15 2 1 6 8 6 7 9 10 9 8 11 15 31 24 18 16 17 17 17 17 21 24 28 32
36 35 34 30 31 27 23 18 12 6 3 5 9 14 18 23 26 29 33 41 41 37 23 6 3 2 2 4 3 2 5 5 10 14 13 22 21 25 22 22 18 19 19 19 23 27 27
47 33 34 34 28 23 25 21 13 8 6 6 8 10 16 20 22 25 29 36 38 37 30 10 5 7 5 3 2 1 3 2 7 14 13 14 21 23 27 26 25 23 22 22 24 20 27
42 30 34 34 25 23 30 25 14 12 7 6 7 8 13 18 20 22 25 31 37 37 32 20 4 8 10 9 7 5 4 4 5 8 10 16 16 18 22 25 25 26 25 26 27 26 30
35 31 36 35 25 23 29 20 16 11 5 5 3 8 11 14 17 19 22 26 34 37 34 25 11 7 12 14 12 11 10 9 8 8 12 14 19 23 24 24 26 26 26 26 28 29 32
43 39 38 30 28 22 27 18 14 11 6 4 6 8 8 11 14 16 19 22 27 31 32 30 16 8 9 14 13 18 18 15 14 14 13 15 18 20 22 26 29 29 28 30 31 31 32
48 45 36 30 28 19 24 25 22 12 9 6 7 6 7 8 12 14 15 19 23 27 29 28 25 15 8 10 15 18 17 21 21 20 18 18 20 21 23 24 25 25 25 28 30 30 31
45 45 37 36 31 24 17 19 21 16 9 4 8 7 7 7 10 11 13 17 19 22 24 26 26 19 12 12 13 18 17 19 22 22 23 22 22 23 23 26 26 24 23 26 28 30 27
53 48 39 39 36 25 21 18 16 14 8 1 6 9 8 6 9 11 12 13 15 19 21 24 25 21 18 12 15 13 17 21 24 26 24 24 24 24 25 27 24 24 24 25 27 29 25
55 51 41 30 33 30 23 21 18 13 6 3 5 9 8 6 9 10 11 12 13 16 17 20 22 21 21 13 11 13 16 20 26 24 22 28 30 27 28 30 28 25 26 26 27 28 28
53 57 42 31 32 32 26 23 21 13 9 3 5 8 7 6 10 11 10 10 10 13 15 17 17 16 20 14 9 12 16 20 22 24 24 25 27 29 27 29 30 30 29 28 28 28 28
Wind_Direction
291 295 297 300 302 307 312 319 330 333 333 338 343 348 349 351 348 351 349 342 338 336 337 337 336 338 337 317 239 231 230 213 194 194 201 200 204 206 211 204 202 203 211 209 203 224 213
290 292 294 298 303 308 314 321 328 332 332 339 344 347 350 352 349 352 350 343 338 336 337 337 336 341 338 320 235 216 213 202 175 185 191 203 202 208 210 207 206 206 209 210 208 213 214
282 291 295 298 302 306 312 320 328 331 332 339 344 348 351 352 351 353 350 343 340 337 338 339 337 342 337 324 235 211 203 191 177 179 176 196 204 207 208 209 203 206 210 209 210 210 216
280 285 289 297 299 305 312 318 327 328 332 337 343 350 353 353 353 354 351 344 341 338 341 341 339 344 336 326 241 211 199 187 177 185 170 176 182 202 210 208 207 195 206 206 210 211 213
277 284 286 292 296 304 312 318 327 330 333 337 344 351 355 354 356 356 351 346 345 341 345 344 344 346 335 331 237 198 204 176 160 166 170 171 190 201 204 208 205 210 204 204 209 207 211
272 278 284 288 290 300 309 316 326 329 334 336 344 352 356 357 358 357 353 349 347 346 347 346 348 351 337 345 219 206 196 173 161 164 167 182 186 188 192 201 208 194 204 201 201 203 205
268 271 279 282 286 298 304 312 325 328 334 336 345 352 357 359 359 358 355 352 350 352 352 351 352 0 348 350 291 217 192 172 166 164 168 173 188 188 192 197 200 202 202 206 207 203 202
262 265 272 275 278 292 297 308 325 328 331 337 346 354 358 1 1 358 358 356 354 356 358 356 359 15 14 345 357 213 182 166 161 165 165 156 164 180 195 192 196 200 200 211 209 201 215
258 261 265 269 270 283 291 305 324 327 333 337 349 356 0 2 2 360 359 1 357 359 4 2 8 30 50 44 39 131 158 160 164 164 171 178 175 165 188 196 195 199 198 206 209 218 217
255 256 261 262 264 276 285 302 322 327 332 338 352 358 2 3 3 0 2 1 2 1 7 8 15 27 44 33 39 150 169 152 162 156 167 168 177 177 176 191 197 198 199 206 207 211 215
250 251 257 258 257 268 280 299 316 324 330 339 354 0 3 6 7 1 3 2 4 4 9 14 18 28 21 28 57 153 140 152 156 156 165 168 180 195 193 193 196 206 200 208 208 208 213
246 246 253 253 252 261 274 297 311 322 327 338 354 3 5 8 9 5 3 6 5 8 15 19 24 33 35 26 108 147 144 135 156 156 158 164 158 165 184 196 200 198 202 206 209 218 216
241 242 248 250 248 254 268 294 308 320 322 341 355 6 9 11 11 9 4 7 7 16 16 13 16 38 56 87 107 148 143 138 149 166 166 164 164 181 186 186 201 201 198 205 209 216 222
232 238 242 243 243 251 262 288 299 316 327 350 2 11 13 12 13 11 7 9 9 17 14 11 15 37 61 109 104 136 144 133 151 157 171 179 181 175 178 183 197 200 199 207 212 216 225
232 233 237 239 239 244 253 272 285 300 330 2 11 17 14 15 14 14 10 12 10 16 21 22 22 42 56 117 119 140 140 139 138 151 166 149 147 162 165 179 184 197 202 205 214 215 225
231 230 233 236 237 235 238 249 267 303 333 11 18 20 16 16 15 17 12 15 12 11 23 29 26 38 56 96 105 134 149 152 151 159 150 147 146 166 180 188 194 197 206 210 216 226 234
226 225 230 231 235 227 222 233 260 291 333 13 17 22 16 17 17 19 15 17 15 14 24 23 35 40 53 71 100 119 147 169 162 179 186 168 164 178 188 190 193 202 210 215 219 223 234
217 225 224 228 233 220 208 224 238 235 40 22 21 22 19 17 16 19 18 16 16 18 5 26 33 45 56 73 97 120 127 164 197 184 189 192 185 179 191 192 201 209 215 217 224 229 236
210 220 223 231 229 221 199 215 224 197 66 17 19 23 22 18 16 18 20 19 16 19 15 15 13 40 47 53 94 118 145 161 207 211 200 201 197 203 211 205 206 207 212 226 235 235 236
203 220 229 230 228 222 198 209 225 216 250 355 16 20 22 18 18 16 20 24 16 15 16 358 206 220 59 42 29 106 119 164 190 193 202 201 213 220 221 219 222 222 228 232 238 235 241
200 208 221 228 229 221 198 210 222 225 258 328 357 17 22 15 16 16 21 27 18 15 15 14 236 221 227 251 271 293 262 235 196 203 200 211 223 226 228 228 226 224 233 240 246 253 245
207 202 222 223 238 227 206 210 218 228 245 306 346 25 19 10 7 13 21 27 26 17 13 13 322 236 232 237 246 268 268 271 223 223 222 227 225 229 221 220 224 234 242 253 253 257 255
194 208 219 220 239 219 207 220 206 199 218 268 351 27 8 2 0 11 20 29 29 24 16 10 7 262 236 243 243 249 256 266 265 244 239 233 233 238 241 240 241 247 251 256 259 260 261
194 202 215 214 229 216 203 210 192 143 138 133 65 36 9 360 356 5 20 30 28 27 18 11 3 349 257 248 244 248 252 253 260 261 257 251 247 244 243 247 249 249 255 259 260 263 263
198 205 205 213 218 221 220 221 229 160 144 85 44 42 11 358 351 357 11 30 27 27 22 15 6 350 314 282 250 252 253 254 256 259 257 256 257 258 256 254 259 258 257 260 262 266 266
197 197 208 212 224 218 226 202 190 170 149 115 20 23 9 349 336 350 1 22 25 27 22 15 10 358 330 287 273 256 254 255 258 257 259 258 258 260 260 260 259 262 264 263 264 264 266
201 200 207 213 219 220 227 208 207 185 165 85 346 358 355 328 320 335 350 11 19 21 26 17 7 355 339 310 277 267 261 252 259 258 258 261 260 262 264 264 261 262 260 261 262 265 264
201 203 206 213 223 224 213 217 227 204 190 288 345 341 343 316 300 316 333 355 9 12 20 19 7 356 347 333 282 271 264 257 263 273 276 267 266 265 264 267 267 264 264 265 265 263 266
200 206 206 209 218 218 219 236 240 241 217 264 292 329 329 311 299 303 321 335 353 2 9 16 13 3 345 344 313 271 265 268 267 272 272 271 274 272 270 271 270 267 265 264 265 264 263
Height
5805 5803 5799 5796 5793 5789 5785 5781 5775 5768 5760 5752 5742 5730 5719 5705 5691 5675 5659 5648 5640 5631 5621 5611 5599 5588 5577 5569 5567 5571 5574 5579 5585 5600 5614 5626 5638 5650 5661 5677 5687 5694 5703 5712 5720 5725 5739
5799 5797 5794 5792 5789 5785 5781 5777 5771 5764 5757 5749 5739 5727 5715 5701 5688 5671 5655 5643 5635 5625 5616 5605 5593 5582 5573 5566 5563 5566 5570 5575 5584 5600 5609 5621 5635 5647 5658 5668 5679 5692 5696 5704 5714 5723 5731
5793 5792 5790 5787 5785 5780 5776 5773 5767 5760 5753 5746 5735 5723 5712 5698 5685 5668 5652 5639 5631 5621 5611 5600 5587 5576 5568 5565 5562 5563 5567 5571 5579 5592 5604 5616 5629 5638 5651 5661 5674 5681 5694 5702 5711 5720 5726
5788 5786 5785 5782 5780 5775 5772 5768 5763 5757 5750 5742 5733 5721 5709 5695 5681 5665 5649 5636 5627 5618 5607 5595 5584 5572 5565 5562 5561 5562 5566 5570 5580 5589 5603 5617 5624 5635 5645 5659 5670 5681 5688 5695 5705 5714 5719
5781 5781 5780 5777 5775 5771 5768 5764 5759 5754 5746 5739 5730 5719 5707 5693 5679 5663 5647 5634 5625 5615 5604 5593 5581 5569 5563 5560 5560 5562 5565 5569 5576 5588 5602 5613 5624 5632 5642 5654 5666 5673 5682 5692 5701 5709 5716
5774 5775 5775 5772 5770 5766 5763 5760 5755 5750 5743 5736 5727 5717 5705 5691 5675 5660 5645 5633 5623 5613 5602 5590 5578 5569 5562 5560 5559 5561 5563 5568 5576 5588 5600 5609 5620 5629 5639 5647 5657 5669 5680 5689 5698 5706 5712
5768 5769 5768 5766 5765 5762 5759 5755 5751 5746 5740 5733 5724 5714 5702 5689 5675 5660 5644 5631 5624 5614 5602 5590 5577 5567 5561 5561 5560 5559 5562 5567 5577 5588 5598 5609 5619 5628 5640 5651 5663 5671 5681 5686 5695 5700 5709
5761 5762 5762 5760 5759 5757 5755 5750 5746 5742 5736 5730 5722 5712 5700 5687 5673 5658 5644 5631 5623 5616 5604 5591 5579 5570 5564 5561 5560 5559 5561 5570 5579 5588 5600 5611 5623 5631 5639 5647 5654 5665 5676 5685 5693 5701 5706
5753 5755 5755 5754 5753 5752 5750 5747 5742 5738 5733 5727 5720 5710 5698 5686 5673 5657 5644 5631 5625 5616 5607 5594 5582 5575 5570 5566 5563 5563 5566 5572 5581 5593 5602 5614 5624 5630 5637 5647 5656 5666 5677 5684 5692 5697 5702
5746 5748 5749 5748 5748 5747 5746 5743 5739 5735 5730 5724 5718 5708 5697 5685 5673 5658 5645 5632 5626 5618 5609 5598 5586 5579 5575 5571 5568 5568 5572 5580 5589 5597 5606 5617 5624 5632 5640 5648 5657 5666 5675 5682 5690 5695 5701
5738 5740 5741 5742 5743 5742 5741 5739 5736 5731 5727 5721 5716 5706 5697 5684 5673 5661 5648 5634 5627 5620 5612 5602 5591 5583 5579 5576 5573 5573 5579 5586 5596 5605 5614 5622 5629 5634 5641 5649 5657 5664 5673 5682 5688 5692 5696
5730 5732 5734 5735 5736 5736 5736 5734 5732 5728 5724 5718 5713 5705 5696 5685 5673 5662 5648 5635 5629 5625 5616 5608 5598 5588 5584 5577 5574 5581 5587 5594 5602 5610 5617 5625 5632 5637 5643 5649 5656 5665 5674 5681 5686 5690 5694
5721 5725 5727 5729 5730 5730 5731 5730 5728 5724 5720 5716 5711 5703 5694 5684 5675 5663 5650 5639 5632 5625 5621 5614 5606 5597 5592 5588 5585 5592 5595 5602 5609 5616 5622 5628 5634 5639 5645 5650 5657 5665 5672 5679 5685 5688 5692
5712 5716 5719 5722 5723 5725 5725 5726 5724 5720 5717 5713 5708 5702 5693 5684 5674 5664 5653 5641 5632 5626 5623 5619 5613 5606 5602 5601 5600 5604 5605 5611 5617 5622 5627 5633 5639 5641 5645 5651 5657 5662 5672 5678 5682 5685 5689
5704 5708 5711 5715 5717 5719 5720 5720 5720 5717 5714 5710 5706 5700 5692 5684 5676 5666 5656 5644 5635 5630 5628 5624 5620 5616 5610 5608 5610 5610 5615 5617 5622 5626 5633 5637 5640 5643 5648 5652 5657 5662 5668 5674 5678 5682 5684
5696 5700 5704 5708 5710 5712 5715 5715 5716 5713 5711 5707 5703 5697 5691 5684 5677 5668 5659 5648 5638 5632 5631 5628 5627 5624 5620 5617 5620 5621 5624 5626 5628 5631 5636 5639 5642 5645 5649 5653 5658 5662 5667 5673 5677 5680 5683
5686 5692 5697 5700 5703 5706 5708 5710 5711 5709 5707 5704 5701 5695 5691 5684 5677 5670 5662 5652 5641 5635 5633 5632 5630 5630 5630 5628 5626 5629 5631 5633 5635 5636 5639 5641 5644 5647 5649 5653 5658 5662 5665 5669 5673 5677 5679
5678 5684 5689 5693 5695 5699 5702 5705 5707 5705 5703 5701 5698 5693 5688 5683 5677 5670 5663 5654 5645 5638 5634 5634 5634 5634 5633 5633 5633 5633 5635 5636 5638 5640 5641 5643 5647 5648 5653 5655 5658 5661 5664 5666 5669 5674 5676
5669 5676 5681 5685 5689 5693 5696 5700 5702 5700 5699 5697 5695 5691 5687 5682 5677 5671 5664 5656 5648 5640 5636 5634 5635 5635 5636 5635 5636 5637 5637 5638 5639 5641 5644 5646 5647 5649 5651 5655 5656 5659 5662 5665 5667 5668 5671
5659 5670 5674 5678 5682 5686 5689 5694 5696 5696 5695 5694 5692 5688 5685 5681 5676 5671 5665 5657 5649 5642 5637 5634 5636 5636 5636 5637 5636 5637 5638 5639 5639 5640 5643 5646 5648 5650 5651 5653 5656 5657 5659 5660 5661 5663 5665
5650 5659 5667 5671 5677 5680 5683 5688 5690 5691 5690 5690 5688 5686 5682 5680 5676 5671 5665 5658 5651 5644 5638 5634 5635 5636 5636 5637 5636 5637 5637 5638 5639 5640 5641 5644 5645 5647 5648 5650 5652 5654 5656 5657 5658 5661 5660
5641 5651 5658 5665 5669 5673 5677 5682 5684 5685 5686 5686 5685 5682 5679 5677 5675 5670 5666 5660 5653 5646 5639 5636 5633 5634 5634 5635 5637 5637 5637 5638 5638 5639 5640 5641 5643 5644 5645 5647 5649 5651 5652 5653 5654 5655 5655
5633 5642 5650 5657 5663 5667 5672 5676 5678 5680 5680 5681 5680 5677 5677 5675 5673 5670 5666 5661 5654 5648 5642 5635 5633 5631 5632 5633 5635 5635 5636 5637 5638 5638 5639 5640 5640 5641 5643 5643 5644 5646 5648 5648 5649 5649 5649
5627 5637 5644 5651 5657 5662 5665 5670 5673 5673 5676 5677 5675 5674 5674 5673 5671 5668 5664 5660 5656 5650 5644 5638 5633 5632 5631 5630 5633 5634 5635 5635 5636 5636 5636 5637 5637 5637 5639 5639 5640 5643 5643 5643 5643 5644 5643
5620 5629 5637 5644 5650 5656 5660 5664 5667 5669 5671 5671 5670 5670 5669 5669 5668 5665 5662 5658 5654 5650 5645 5640 5634 5632 5630 5629 5630 5630 5631 5632 5633 5633 5634 5633 5633 5633 5633 5633 5634 5635 5637 5637 5636 5637 5635
5612 5622 5631 5638 5644 5650 5655 5658 5660 5663 5665 5666 5667 5666 5666 5665 5665 5662 5661 5657 5653 5650 5646 5641 5635 5630 5628 5627 5626 5626 5627 5627 5626 5628 5628 5628 5628 5629 5628 5627 5628 5629 5629 5628 5628 5628 5629
5605 5615 5622 5631 5637 5644 5650 5653 5655 5658 5660 5662 5663 5662 5662 5661 5661 5659 5657 5655 5652 5648 5645 5640 5635 5629 5625 5623 5621 5622 5621 5621 5621 5621 5623 5623 5622 5622 5622 5621 5623 5623 5623 5622 5622 5624 5623
5598 5609 5617 5624 5631 5638 5644 5647 5650 5653 5654 5657 5658 5658 5658 5657 5658 5656 5654 5651 5649 5647 5644 5640 5636 5629 5624 5620 5618 5618 5617 5616 5615 5618 5618 5618 5617 5615 5615 5615 5617 5618 5617 5617 5616 5615 5615
5593 5602 5611 5618 5625 5632 5638 5641 5645 5647 5650 5652 5654 5654 5653 5654 5654 5652 5650 5648 5646 5644 5641 5637 5634 5630 5623 5618 5616 5615 5614 5612 5613 5613 5612 5612 5611 5610 5611 5609 5608 5608 5609 5608 5608 5608 5608